Brunswick, GA

9:55 PM EDT on May 22, 2017 (GMT -0400)
Glynco Jetport

Weather History for KBQK - December, 2010

Change the Weather History Date:

Friday, December 31, 2010

  Actual Average Record
Temperature  
Mean Temperature 56 °F -  
Max Temperature 70 °F 63 °F 82 °F (1984)
Min Temperature 42 °F 44 °F 22 °F (1983)
Degree Days  
Heating Degree Days 9    
Growing Degree Days 6 (Base 50)    
Moisture  
Dew Point 53 °F    
Average Humidity 89    
Maximum Humidity 100    
Minimum Humidity 60    
Precipitation  
Precipitation 0.00 in - - ()
Sea Level Pressure  
Sea Level Pressure 30.21 in    
Wind  
Wind Speed 4 mph (East)    
Max Wind Speed 10 mph    
Max Gust Speed -    
Visibility 6 miles    
Events      
Averages and records for this station are not official NWS values.
T = Trace of Precipitation, MM = Missing Value Source: NWS Daily Summary

Daily Weather History Graph

Daily Weather History Graph

Search for Another Location

Airport or City:

Trip Planner

Search our weather history database for the weather conditions in past years. The results will help you decide how hot, cold, wet, or windy it might be!

Date:

Astronomy

Dec. 31, 2010 Rise Set
Actual Time 7:24 AM EST 5:33 PM EST
Civil Twilight 6:57 AM EST 6:00 PM EST
Nautical Twilight 6:27 AM EST 6:30 PM EST
Astronomical Twilight 5:57 AM EST 7:00 PM EST
Moon 3:51 AM EST (12/31) 2:20 PM EST (12/31)
Length of Visible Light 11h 02m
Length of Day
10h 09m
Waning Crescent, 15% of the Moon is Illuminated
Dec 31
Waning Crescent
Jan 4
New
Jan 12
First Quarter
Jan 19
Full
Jan 26
Last Quarter

Hourly Weather History & Observations

Time (EST) Temp. Windchill Dew Point Humidity Pressure Visibility Wind Dir Wind Speed Gust Speed Precip Events Conditions
12:17 AM 44.4 °F - 44.6 °F 100% 30.18 in 2.0 mi Calm Calm - N/A   Overcast
12:37 AM 44.8 °F - 45.1 °F 100% 30.18 in 0.8 mi Calm Calm - N/A   Overcast
12:57 AM 43.7 °F 42.1 °F 43.9 °F 100% 30.18 in 0.5 mi East 3.5 mph - N/A   Overcast
1:17 AM 44.2 °F 42.7 °F 44.6 °F 100% 30.18 in 3.0 mi East 3.5 mph - N/A   Mostly Cloudy
1:37 AM 45.7 °F - 45.9 °F 100% 30.19 in 4.0 mi Calm Calm - N/A   Overcast
1:57 AM 45.9 °F 44.6 °F 46.0 °F 100% 30.19 in 7.0 mi East 3.5 mph - N/A   Mostly Cloudy
2:17 AM 44.8 °F 43.3 °F 45.0 °F 100% 30.18 in 1.8 mi ESE 3.5 mph - N/A   Mostly Cloudy
2:37 AM 44.8 °F - 45.0 °F 100% 30.18 in 0.5 mi Calm Calm - N/A   Mostly Cloudy
2:57 AM 45.9 °F - 46.0 °F 100% 30.18 in 0.5 mi Calm Calm - N/A   Mostly Cloudy
3:17 AM 46.4 °F - 46.4 °F 100% 30.18 in 1.0 mi Calm Calm - N/A   Overcast
3:37 AM 46.0 °F 44.8 °F 46.0 °F 100% 30.18 in 1.5 mi ENE 3.5 mph - N/A   Overcast
3:57 AM 46.4 °F 45.2 °F 46.4 °F 100% 30.18 in 3.0 mi ENE 3.5 mph - N/A   Scattered Clouds
4:17 AM 45.0 °F 43.5 °F 45.1 °F 100% 30.18 in 0.5 mi East 3.5 mph - N/A   Mostly Cloudy
4:37 AM 44.6 °F 42.2 °F 44.6 °F 100% 30.18 in 5.0 mi ENE 4.6 mph - N/A   Mostly Cloudy
4:57 AM 44.2 °F 42.7 °F 44.4 °F 100% 30.18 in 2.5 mi East 3.5 mph - N/A   Overcast
5:17 AM 42.4 °F 39.6 °F 42.8 °F 100% 30.18 in 3.0 mi East 4.6 mph - N/A   Mostly Cloudy
5:37 AM 46.0 °F 44.8 °F 46.0 °F 100% 30.19 in 7.0 mi East 3.5 mph - N/A   Mostly Cloudy
5:57 AM 46.2 °F 45.0 °F 46.2 °F 100% 30.19 in 7.0 mi East 3.5 mph - N/A   Mostly Cloudy
6:17 AM 46.8 °F - 46.9 °F 100% 30.20 in 7.0 mi East 3.5 mph - N/A   Overcast
6:37 AM 46.6 °F - 46.8 °F 100% 30.20 in 7.0 mi East 3.5 mph - N/A   Overcast
6:57 AM 46.4 °F 45.2 °F 46.6 °F 100% 30.21 in 5.0 mi ENE 3.5 mph - N/A   Overcast
7:17 AM 46.0 °F 43.9 °F 46.4 °F 100% 30.21 in 4.0 mi ENE 4.6 mph - N/A   Overcast
7:37 AM 47.3 °F - 47.3 °F 100% 30.21 in 5.0 mi East 4.6 mph - N/A   Scattered Clouds
7:57 AM 48.4 °F - 48.4 °F 100% 30.22 in 5.0 mi ENE 3.5 mph - N/A   Clear
8:17 AM 50.2 °F - 50.4 °F 100% 30.23 in 7.0 mi East 4.6 mph - N/A   Clear
8:37 AM 52.2 °F - 52.3 °F 100% 30.23 in 10.0 mi East 4.6 mph - N/A   Clear
8:57 AM 55.2 °F - 54.5 °F 97% 30.24 in 10.0 mi East 5.8 mph - N/A   Clear
9:17 AM 57.4 °F - 55.0 °F 92% 30.24 in 10.0 mi ENE 5.8 mph - N/A   Scattered Clouds
9:37 AM 58.6 °F - 55.0 °F 88% 30.26 in 10.0 mi ENE 6.9 mph - N/A   Clear
9:57 AM 60.8 °F - 55.4 °F 82% 30.26 in 10.0 mi ENE 5.8 mph - N/A   Scattered Clouds
10:17 AM 64.0 °F - 57.4 °F 79% 30.26 in 10.0 mi ENE 4.6 mph - N/A   Scattered Clouds
10:37 AM 66.0 °F - 57.4 °F 74% 30.26 in 10.0 mi East 8.1 mph - N/A   Clear
10:57 AM 66.6 °F - 57.2 °F 72% 30.26 in 10.0 mi East 5.8 mph - N/A   Clear
11:17 AM 67.8 °F - 57.4 °F 69% 30.26 in 10.0 mi ESE 3.5 mph - N/A   Clear
11:37 AM 69.1 °F - 57.7 °F 67% 30.24 in 10.0 mi ENE 4.6 mph - N/A   Clear
11:57 AM 70.3 °F - 57.9 °F 65% 30.23 in 10.0 mi East 6.9 mph - N/A   Clear
12:17 PM 70.2 °F - 58.1 °F 65% 30.23 in 10.0 mi ESE 9.2 mph - N/A   Clear
12:37 PM 70.0 °F - 57.9 °F 65% 30.23 in 10.0 mi ESE 9.2 mph - N/A   Clear
12:57 PM 70.0 °F - 59.0 °F 68% 30.23 in 10.0 mi SSE 8.1 mph - N/A   Clear
1:17 PM 69.6 °F - 59.0 °F 69% 30.23 in 10.0 mi South 6.9 mph - N/A   Mostly Cloudy
1:37 PM 69.8 °F - 60.1 °F 71% 30.23 in 10.0 mi South 9.2 mph - N/A   Overcast
1:57 PM 69.6 °F - 59.7 °F 71% 30.22 in 10.0 mi South 5.8 mph - N/A   Overcast
2:17 PM 69.3 °F - 57.7 °F 67% 30.21 in 10.0 mi SE 6.9 mph - N/A   Overcast
2:37 PM 70.0 °F - 57.4 °F 64% 30.21 in 10.0 mi SE 8.1 mph - N/A   Scattered Clouds
2:57 PM 70.7 °F - 56.1 °F 60% 30.20 in 10.0 mi SE 10.4 mph - N/A   Clear
3:17 PM 69.6 °F - 56.7 °F 63% 30.20 in 10.0 mi ESE 10.4 mph - N/A   Clear
3:37 PM 68.0 °F - 56.8 °F 67% 30.20 in 10.0 mi ESE 9.2 mph - N/A   Clear
3:57 PM 68.4 °F - 56.5 °F 66% 30.19 in 10.0 mi East 10.4 mph - N/A   Clear
4:17 PM 67.6 °F - 56.3 °F 67% 30.20 in 10.0 mi ESE 9.2 mph - N/A   Clear
4:37 PM 66.0 °F - 57.4 °F 74% 30.19 in 10.0 mi East 9.2 mph - N/A   Clear
4:57 PM 64.4 °F - 57.9 °F 79% 30.20 in 10.0 mi East 8.1 mph - N/A   Clear
5:17 PM 62.1 °F - 57.2 °F 84% 30.21 in 10.0 mi ENE 6.9 mph - N/A   Clear
5:37 PM 60.8 °F - 57.2 °F 88% 30.21 in 10.0 mi East 5.8 mph - N/A   Clear
5:57 PM 60.8 °F - 59.0 °F 94% 30.21 in 10.0 mi East 8.1 mph - N/A   Mostly Cloudy
6:17 PM 59.5 °F - 59.0 °F 98% 30.21 in 5.0 mi East 6.9 mph - N/A   Overcast
6:37 PM 59.0 °F - 59.0 °F 100% 30.21 in 0.2 mi East 6.9 mph - N/A   Overcast
7:17 PM 59.0 °F - 59.0 °F 100% 30.22 in 0.2 mi East 8.1 mph - N/A   Overcast
7:37 PM 59.4 °F - 59.4 °F 100% 30.22 in 0.2 mi ENE 3.5 mph - N/A   Overcast
7:57 PM 59.2 °F - 59.2 °F 100% 30.22 in 0.2 mi East 5.8 mph - N/A   Overcast
8:17 PM 59.0 °F - 59.0 °F 100% 30.21 in 0.2 mi East 4.6 mph - N/A   Overcast
8:37 PM 59.0 °F - 59.0 °F 100% 30.21 in 0.2 mi East 3.5 mph - N/A   Overcast
8:57 PM 59.2 °F - 59.2 °F 100% 30.21 in 0.2 mi Calm Calm - N/A   Overcast
9:17 PM 59.0 °F - 59.0 °F 100% 30.21 in 0.2 mi ESE 3.5 mph - N/A   Overcast
9:37 PM 58.6 °F - 58.6 °F 100% 30.22 in 0.2 mi Calm Calm - N/A   Overcast
9:57 PM 57.7 °F - 57.9 °F 100% 30.21 in 0.2 mi Calm Calm - N/A   Overcast
10:17 PM 55.6 °F - 55.8 °F 100% 30.21 in 0.2 mi Calm Calm - N/A   Overcast
10:37 PM 55.4 °F - 55.4 °F 100% 30.21 in 0.2 mi Calm Calm - N/A   Overcast
10:57 PM 54.0 °F - 54.1 °F 100% 30.21 in 0.2 mi Calm Calm - N/A   Overcast
11:17 PM 53.8 °F - 54.0 °F 100% 30.21 in 0.2 mi Calm Calm - N/A   Overcast
11:37 PM 53.1 °F - 53.2 °F 100% 30.21 in 0.2 mi Calm Calm - N/A   Overcast
11:57 PM 50.5 °F - 50.7 °F 100% 30.20 in 0.2 mi Calm Calm - N/A   Overcast